星链-2640 (STARLINK-2640 )

导读

STARLINK-2640是美国太空探索技术公司(SpaceX)星链(Starlink)星座中的低轨通信卫星,于2021年5月9日发射入轨。它属于星链卫星互联网项目,旨在为全球尤其是偏远地区提供高速低延迟的宽带互联网接入服务。卫星采用平板设计,搭载霍尔推进器,具备自主避撞能力,设计寿命约5-7年,退役后会主动离轨再入大气层烧毁,减少空间碎片威胁。

Basic Information
目录编号:
48438
目录名称:
STARLINK-2640
国际标识:
2021-040L
轨道中心:
EARTH
卫星名称:
星链-2640
卫星全名:
星链-2640 (STARLINK-2640 )
卫星状态:
在轨 (已飞行1944 天)
发射日期:
2021-05-09 UTC
国别 :
美国 (US)
星等 :
--
Orbit Information
数据来源 国际轨道数据 AOE轨道数据
星历时间 2026-09-04T10:23:05+0800
7小时前
查看轨道信息
2026-08-30T17:00:00+0800
5天前
查看轨道信息
半长轴 6848.895km 6848.797km
偏心率 0.0001247 0.0000961
轨道倾角 53.161° 53.159°
近地点辐角 70.962° 70.556°
升交点赤经 67.953° 89.948°
平近点角 289.152° 144.362°
近地点 469.903km 470.001km
远地点 471.613km 471.319km
周期 94.014分钟 94.012分钟
每日圈数 15.31694 15.31727
Detailed Information
固有亮度:
5
最大亮度:
2.5
卫星平台:
Starlink V1.0
覆盖范围:
全球
运营商:
太空探索技术公司
运营商所在国:
美国
制造商(研发单位):
太空探索技术公司
制造商所在国:
美国
使用方式:
暂无
Satellite Introduction
星链(Starlink)计划是由太空探索技术公司(SpaceX)提出的一个巨型低轨卫星互联网星座项目,计划在2019年至2024年间在太空搭建由约1.2万颗卫星组成的“星链”网络,其中1584颗将部署在地球上空550千米处的近地轨道,并从2020年开始工作。该卫星仍在工作。
2D Orbit Map
3D Orbit Map
Orbit Altitude Analysis Chart
Orbit Inclination Analysis Chart
Orbit Comprehensive Analysis Chart
View Comprehensive Chart